Home > Weather > Oxnard > Past weeks

Flag for U.S.A. Weather for the Past 2 Weeks in Oxnard, California, U.S.A.

Now
64 °F

Clear.


Feels Like: 64 °F
Forecast: 57 / 77 °F
Wind: 8 mph from Northeast

Location: Oxnard Airport

Current Time: Feb 10, 2016 at 10:48:32 PM

Latest Report: Feb 10, 2016 at 9:51 PM


Visibility: 10 mi

Pressure: 30.09 "Hg

Humidity: 43%

Dew point: 41 °F

Location of OxnardLocation

Historic Weather in Oxnard — Graph

°F

Oxnard Temperature Yesterday

Maximum temperature yesterday: 91 °F (at 12:51 PM)
Minimum temperature yesterday: 57 °F (at 1:51 AM)
Average temperature yesterday: 70 °F

High & Low Weather Summary for the Past Weeks

 TemperatureHumidityPressure
High91 °F (Feb 9, 12:51 PM)93% (Jan 31, 7:51 AM)30.38 "Hg (Jan 31, 7:51 AM)
Low41 °F (Feb 1, 11:51 PM)9% (Feb 7, 1:51 PM)29.57 "Hg (Jan 31, 1:51 PM)
Average61 °F46%30.13 "Hg
* Reported Jan 26 8:51 PM — Feb 10 8:51 PM, Oxnard, Weather by CustomWeather, © 2016

Note: Actual official high and low records may vary slightly from our data, if they occured in-between our weather recording intervals... More about our weather records

Advertising

Oxnard Weather History for the Previous 24 Hours

 ConditionsComfort  
Time TempWeatherWind HumidityBarometerVisibility
8:51 PM
Wed, Feb 10
63 °FClear.7 mph50%30.09 "Hg10 mi
7:51 PM62 °FClear.5 mph58%30.09 "Hg10 mi
6:51 PM62 °FClear.No wind73%30.09 "Hg10 mi
5:51 PM64 °FClear.No wind70%30.09 "Hg10 mi
4:51 PM67 °FSunny.No wind57%30.08 "Hg10 mi
3:51 PM69 °FSunny.8 mph53%30.08 "Hg10 mi
2:51 PM69 °FSunny.10 mph57%30.08 "Hg10 mi
1:51 PM71 °FSunny.12 mph49%30.09 "Hg10 mi
12:51 PM78 °FSunny.7 mph25%30.08 "Hg10 mi
11:51 AM79 °FSunny.8 mph28%30.11 "Hg10 mi
10:51 AM82 °FSunny.5 mph22%30.14 "Hg10 mi
9:51 AM77 °FSunny.8 mph18%30.15 "Hg10 mi
8:51 AM71 °FSunny.9 mph22%30.15 "Hg10 mi
7:51 AM66 °FSunny.10 mph24%30.14 "Hg10 mi
6:51 AM64 °FSunny.12 mph25%30.12 "Hg10 mi
5:51 AM64 °FClear.14 mph25%30.11 "Hg10 mi
4:51 AM64 °FClear.14 mph25%30.11 "Hg10 mi
3:51 AM65 °FClear.12 mph24%30.10 "Hg10 mi
2:51 AM66 °FClear.10 mph24%30.12 "Hg10 mi
1:51 AM66 °FClear.9 mph24%30.11 "Hg10 mi
12:51 AM62 °FClear.8 mph32%30.12 "Hg10 mi
11:51 PM
Tue, Feb 9
57 °FClear.3 mph64%30.13 "Hg10 mi
10:51 PM57 °FClear.7 mph60%30.12 "Hg10 mi
Weather by CustomWeather, © 2016

See weather overviewHow to use our weather pages